This demonstration page uses our WeatherBlox Daily Observations layout. Learn more.

Left ArrowRight Arrow

40.92945, -100.16068

Hourly Observations for March 25, 2021

Temp ( °F °C ) Dew Point ( °F °C ) Humidity (%) Winds ( mph kmh ) Pressure ( in mb ) Visibility ( mi km ) Precip ( " mm )
12:15 am 00:15 Clear 37 3 34 1.1 87 87 SE 3 6 29.93 1013 10 16 N/A
12:35 am 00:35 Clear 37 2.7 34 1 89 89 SSE 3 6 29.93 1014 10 16 N/A
12:55 am 00:55 Clear 37 2.6 34 1 89 89 SSE 3 6 29.92 1013 10 16 N/A
1:15 am 01:15 Clear 36 2.1 34 0.9 92 92 N N/A 29.93 1013 10 16 N/A
1:35 am 01:35 Clear 37 2.5 34 1 90 90 N N/A 29.92 1013 10 16 N/A
1:55 am 01:55 Clear 36 2.1 34 1.1 93 93 N N/A 29.93 1013 7 11 N/A
2:15 am 02:15 Clear 35 1.5 33 0.7 94 94 N N/A 29.92 1013 7 11 N/A
2:35 am 02:35 Clear 35 1.5 33 0.7 94 94 N N/A 29.92 1013 7 11 N/A
2:55 am 02:55 Clear 35 1.6 34 0.9 95 95 N N/A 29.91 1013 10 16 N/A
3:15 am 03:15 Clear 35 1.8 33 0.5 91 91 SSE 5 7 29.91 1013 10 16 N/A
3:35 am 03:35 Clear 36 2 33 0.4 89 89 S 5 7 29.91 1013 10 16 N/A
3:55 am 03:55 Clear 34 1.3 32 undefined 91 91 S 5 7 29.91 1013 10 16 N/A
4:15 am 04:15 Clear 34 1.1 32 undefined 92 92 S 5 7 29.91 1013 10 16 N/A
4:35 am 04:35 Clear 33 0.7 32 undefined 95 95 SSE 5 7 29.91 1013 10 16 N/A
4:55 am 04:55 Clear 32 0.2 31 -0.4 96 96 SSE 6 9 29.91 1013 10 16 N/A
5:15 am 05:15 Clear 33 0.7 32 undefined 95 95 SSE 6 9 29.92 1013 10 16 N/A
5:35 am 05:35 Clear 33 0.6 32 undefined 96 96 SSE 6 9 29.91 1013 10 16 N/A
5:55 am 05:55 Clear 32 undefined 31 -0.4 97 97 S 5 7 29.92 1013 10 16 N/A
6:15 am 06:15 Clear 32 undefined 31 -0.3 98 98 SW 3 6 29.91 1013 10 16 N/A
6:35 am 06:35 Clear 32 undefined 31 -0.5 96 96 SSE 3 6 29.90 1012 10 16 N/A
6:55 am 06:55 Clear 33 0.4 32 undefined 97 97 SE 7 11 29.91 1013 10 16 N/A
7:15 am 07:15 Clear 32 undefined 31 -0.5 96 96 S 5 7 29.93 1013 10 16 N/A
7:35 am 07:35 Sunny 31 -0.5 30 -1 96 96 SSE 6 9 29.93 1014 7 11 N/A
7:55 am 07:55 Sunny with Mist and Fog 31 -0.5 30 -0.9 97 97 SSE 6 9 29.93 1014 5 8 N/A
8:15 am 08:15 Sunny 32 undefined 31 -0.5 96 96 SSE 5 7 29.93 1013 10 16 N/A
8:35 am 08:35 Sunny 32 0.1 32 undefined 99 99 SSE 6 9 29.92 1013 10 16 N/A
8:55 am 08:55 Sunny 33 0.6 32 undefined 96 96 S 3 6 29.90 1013 10 16 N/A
9:15 am 09:15 Sunny 35 1.6 33 0.8 94 94 SSE 6 9 29.90 1013 10 16 N/A
9:35 am 09:35 Sunny 37 3 35 1.7 91 91 S 6 9 29.89 1012 10 16 N/A
9:55 am 09:55 Sunny 40 4.7 36 2.1 83 83 SSW 9 15 29.86 1011 7 11 N/A
10:15 am 10:15 Partly Cloudy 42 5.6 35 1.9 77 77 S 10 17 29.87 1012 7 11 N/A
10:35 am 10:35 Mostly Cloudy 42 5.6 35 1.9 77 77 SSE 14 22 29.86 1011 10 16 N/A
10:55 am 10:55 Cloudy 41 5.1 35 1.6 78 78 S 15 24 29.88 1012 10 16 N/A
11:15 am 11:15 Cloudy 41 5 35 1.5 78 78 S 15 24 29.88 1012 10 16 N/A
11:35 am 11:35 Cloudy 42 5.4 35 1.9 78 78 S 15 24 29.87 1012 10 16 N/A
11:55 am 11:55 Cloudy 43 6 36 2 76 76 SSE 12 19 29.86 1011 10 16 N/A
12:15 pm 12:15 Cloudy 43 6 35 1.8 75 75 SSE 14 22 29.86 1011 10 16 N/A
12:35 pm 12:35 Cloudy 42 5.7 35 1.5 75 75 S 14 22 29.86 1011 10 16 N/A
12:55 pm 12:55 Cloudy 43 6 35 1.6 74 74 SSE 13 20 29.86 1011 10 16 N/A
1:15 pm 13:15 Cloudy 43 6.3 35 1.9 74 74 SSE 9 15 29.85 1011 10 16 N/A
1:35 pm 13:35 Cloudy 44 6.6 36 2.1 73 73 SSE 12 19 29.84 1011 10 16 N/A
1:55 pm 13:55 Cloudy 45 7.4 35 1.8 68 68 S 8 13 29.82 1010 10 16 N/A
2:15 pm 14:15 Mostly Cloudy 47 8.4 36 2.4 66 66 S 9 15 29.80 1009 10 16 N/A
2:35 pm 14:35 Partly Cloudy 47 8.5 36 2.1 64 64 SSW 8 13 29.79 1009 10 16 N/A
2:55 pm 14:55 Partly Cloudy 48 8.8 36 2.3 64 64 S 9 15 29.78 1009 10 16 N/A
3:15 pm 15:15 Partly Cloudy 48 8.9 35 1.6 61 61 S 3 6 29.77 1008 10 16 N/A
3:35 pm 15:35 Mostly Cloudy 49 9.3 35 1.7 59 59 S 9 15 29.76 1008 10 16 N/A
3:55 pm 15:55 Mostly Cloudy 50 10.1 35 1.8 57 57 SW 9 15 29.74 1007 10 16 N/A
4:15 pm 16:15 Mostly Cloudy 50 10 35 1.8 57 57 S 8 13 29.73 1007 10 16 N/A
4:35 pm 16:35 Partly Cloudy 51 10.5 33 0.7 51 51 SW 6 9 29.73 1007 10 16 N/A
4:55 pm 16:55 Sunny 52 11 35 1.5 52 52 SSW 10 17 29.71 1006 10 16 N/A
5:15 pm 17:15 Sunny 52 11.3 35 1.9 53 53 SSW 12 19 29.71 1006 10 16 N/A
5:35 pm 17:35 Sunny 52 11.1 34 1.2 51 51 SSW 10 17 29.71 1006 10 16 N/A
5:55 pm 17:55 Sunny 52 11 34 1.2 51 51 SSW 8 13 29.71 1006 10 16 N/A
6:15 pm 18:15 Sunny 52 11.2 34 1.3 51 51 SSW 10 17 29.71 1006 10 16 N/A
6:35 pm 18:35 Sunny 52 11.1 33 0.7 49 49 SW 7 11 29.72 1006 10 16 N/A
6:55 pm 18:55 Sunny 52 11 33 0.6 49 49 SSW 8 13 29.72 1007 10 16 N/A
7:15 pm 19:15 Sunny 51 10.6 35 1.4 53 53 SSW 6 9 29.73 1007 10 16 N/A
7:35 pm 19:35 Sunny 49 9.3 35 1.9 60 60 S 7 11 29.75 1007 10 16 N/A
7:55 pm 19:55 Sunny 46 8 36 2 66 66 S 8 13 29.76 1008 10 16 N/A
8:15 pm 20:15 Clear 45 7 36 2.3 72 72 SSE 10 17 29.76 1008 10 16 N/A
8:35 pm 20:35 Clear 44 6.8 35 1.4 69 69 SSE 6 9 29.77 1008 10 16 N/A
8:55 pm 20:55 Clear 43 6.1 34 1.2 71 71 SSE 6 9 29.79 1009 10 16 N/A
9:15 pm 21:15 Clear 42 5.8 35 1.5 74 74 SSE 8 13 29.79 1009 10 16 N/A
9:35 pm 21:35 Clear 44 6.5 36 2 73 73 SSE 12 19 29.79 1009 10 16 N/A
9:55 pm 21:55 Clear 42 5.6 36 2.2 79 79 SSE 12 19 29.81 1010 10 16 N/A
10:15 pm 22:15 Clear 42 5.5 36 2.3 80 80 SSE 13 20 29.82 1010 10 16 N/A
10:35 pm 22:35 Clear 41 5.1 36 2.3 82 82 SSE 13 20 29.83 1010 10 16 N/A
10:55 pm 22:55 Clear 41 5 36 2.1 82 82 SSE 12 19 29.83 1010 10 16 N/A
11:15 pm 23:15 Clear 40 4.7 36 2 83 83 S 12 19 29.84 1011 10 16 N/A
11:35 pm 23:35 Clear 40 4.6 35 1.8 82 82 S 14 22 29.85 1011 10 16 N/A
11:55 pm 23:55 Clear 40 4.3 35 1.6 83 83 S 12 19 29.86 1011 10 16 N/A

Powered by AerisWeather